CW7399 Weather Reports


Display with metric or nautical units.
time (UTC)temp
F
wind
direction
speed
MPH
gust
MPH
rain 1hr
in
rain 24hr
in
rain mn
in
humidity
%
barometer
mb
20180525201504 66 211 7.0 12.0 0.00 0.00 0.00 78 1012.6
20180525201003 66 210 8.0 12.0 0.00 0.00 0.00 78 1012.7
20180525200504 66 219 8.0 14.0 0.00 0.00 0.00 78 1012.7
20180525200004 66 244 7.0 14.0 0.00 0.00 0.00 78 1012.8
20180525195503 66 208 8.0 14.0 0.00 0.00 0.00 77 1012.8
20180525195004 66 201 8.0 14.0 0.00 0.00 0.00 79 1012.9
20180525194003 65 219 6.0 11.0 0.00 0.00 0.00 80 1013.1
20180525193504 65 220 7.0 14.0 0.00 0.00 0.00 80 1013.2
20180525193004 65 209 7.0 12.0 0.00 0.00 0.00 81 1013.1
20180525192503 65 222 6.0 10.0 0.00 0.00 0.00 81 1013.2
20180525192003 65 227 8.0 14.0 0.00 0.00 0.00 81 1013.3
20180525191503 64 235 7.0 11.0 0.00 0.00 0.00 82 1013.4
20180525191003 64 208 9.0 13.0 0.00 0.00 0.00 82 1013.5
20180525190504 64 225 9.0 14.0 0.00 0.00 0.00 83 1013.6
20180525190003 64 225 9.0 16.0 0.00 0.00 0.00 82 1013.7
20180525185504 65 216 7.0 11.0 0.00 0.00 0.00 83 1013.7
20180525185003 64 216 7.0 12.0 0.00 0.00 0.00 83 1013.8
20180525184504 64 212 8.0 13.0 0.00 0.00 0.00 82 1013.9
20180525184004 65 233 7.0 12.0 0.00 0.00 0.00 82 1013.9
20180525183504 65 213 7.0 13.0 0.00 0.00 0.00 81 1014.0
20180525183004 65 200 7.0 12.0 0.00 0.00 0.00 81 1014.0
20180525182503 65 202 8.0 14.0 0.00 0.00 0.00 81 1014.2
20180525182004 65 214 7.0 12.0 0.00 0.00 0.00 80 1014.2
20180525181503 65 206 9.0 13.0 0.00 0.00 0.00 80 1014.3
20180525181003 65 195 9.0 13.0 0.00 0.00 0.00 81 1014.3
20180525180504 65 198 7.0 11.0 0.00 0.00 0.00 82 1014.4
20180525180004 65 213 6.0 11.0 0.00 0.00 0.00 81 1014.4
20180525175503 65 224 7.0 11.0 0.00 0.00 0.00 81 1014.4
20180525175004 65 212 9.0 13.0 0.00 0.00 0.00 81 1014.5
20180525174503 65 210 7.0 12.0 0.00 0.00 0.00 79 1014.4
20180525174004 65 204 7.0 10.0 0.00 0.00 0.00 80 1014.5
20180525173503 65 203 6.0 10.0 0.00 0.00 0.00 80 1014.6
20180525173003 65 243 6.0 9.0 0.00 0.00 0.00 80 1014.7
20180525172504 65 210 7.0 11.0 0.00 0.00 0.00 78 1014.8
20180525172004 65 237 6.0 10.0 0.00 0.00 0.00 78 1014.7
20180525171504 66 212 6.0 9.0 0.00 0.00 0.00 77 1014.8
20180525171003 66 235 7.0 11.0 0.00 0.00 0.00 76 1014.8
20180525170504 66 200 7.0 11.0 0.00 0.00 0.00 75 1014.9
20180525170004 67 227 7.0 11.0 0.00 0.00 0.00 75 1014.9
20180525165503 67 214 6.0 10.0 0.00 0.00 0.00 73 1014.9
20180525165003 67 224 7.0 11.0 0.00 0.00 0.00 72 1015.0
20180525164504 68 227 7.0 10.0 0.00 0.00 0.00 71 1015.0
20180525164004 68 203 6.0 10.0 0.00 0.00 0.00 71 1015.2
20180525163503 68 236 7.0 12.0 0.00 0.00 0.00 70 1015.2
20180525163004 68 224 6.0 12.0 0.00 0.00 0.00 71 1015.3
20180525162504 68 220 5.0 9.0 0.00 0.00 0.00 72 1015.3
20180525162004 68 216 6.0 9.0 0.00 0.00 0.00 72 1015.4
20180525161503 67 222 6.0 9.0 0.00 0.00 0.00 73 1015.4
20180525161004 67 229 7.0 11.0 0.00 0.00 0.00 73 1015.5
20180525160504 67 220 6.0 10.0 0.00 0.00 0.00 73 1015.7
20180525160004 67 240 6.0 9.0 0.00 0.00 0.00 74 1015.7
20180525155503 67 197 6.0 10.0 0.00 0.00 0.00 74 1015.8
20180525155003 67 206 6.0 9.0 0.00 0.00 0.00 73 1015.9
20180525154503 67 204 6.0 10.0 0.00 0.00 0.00 72 1016.0
20180525154004 67 202 6.0 10.0 0.00 0.00 0.00 73 1016.1
20180525153504 67 213 6.0 9.0 0.00 0.00 0.00 73 1016.2
20180525153004 67 219 6.0 11.0 0.00 0.00 0.00 72 1016.3
20180525152503 67 201 5.0 8.0 0.00 0.00 0.00 71 1016.4
20180525152003 67 210 6.0 11.0 0.00 0.00 0.00 72 1016.4
20180525151503 67 193 6.0 9.0 0.00 0.00 0.00 72 1016.5
20180525151004 68 234 6.0 10.0 0.00 0.00 0.00 72 1016.5
20180525150504 68 230 5.0 7.0 0.00 0.00 0.00 73 1016.5
20180525150004 68 209 5.0 7.0 0.00 0.00 0.00 73 1016.6
20180525145503 68 194 5.0 7.0 0.00 0.00 0.00 73 1016.6
20180525145003 68 193 6.0 9.0 0.00 0.00 0.00 73 1016.6
20180525144004 68 203 5.0 9.0 0.00 0.00 0.00 75 1016.7
20180525143503 67 201 4.0 6.0 0.00 0.00 0.00 75 1016.8
20180525143003 67 230 3.0 5.0 0.00 0.00 0.00 76 1016.8
20180525142504 66 207 4.0 6.0 0.00 0.00 0.00 76 1016.9
20180525142003 66 205 4.0 5.0 0.00 0.00 0.00 75 1017.0
20180525141504 66 192 5.0 8.0 0.00 0.00 0.00 76 1016.9
20180525141004 65 201 5.0 7.0 0.00 0.00 0.00 77 1017.0
20180525140503 65 224 5.0 7.0 0.00 0.00 0.00 78 1017.0
20180525140003 65 225 5.0 8.0 0.00 0.00 0.00 78 1017.1
20180525135504 65 196 5.0 8.0 0.00 0.00 0.00 77 1017.1
20180525135004 65 218 5.0 8.0 0.00 0.00 0.00 79 1017.2
20180525134503 64 204 5.0 7.0 0.00 0.00 0.00 79 1017.2
20180525134003 64 220 5.0 7.0 0.00 0.00 0.00 80 1017.3
20180525133504 64 234 4.0 7.0 0.00 0.00 0.00 80 1017.3
20180525133004 64 231 4.0 6.0 0.00 0.00 0.00 79 1017.5
20180525132503 64 227 5.0 8.0 0.00 0.00 0.00 80 1017.5
20180525132004 64 223 3.0 6.0 0.00 0.00 0.00 80 1017.5
20180525131503 64 214 4.0 6.0 0.00 0.00 0.00 79 1017.5
20180525131004 64 202 5.0 7.0 0.00 0.00 0.00 80 1017.5
20180525130503 64 218 4.0 6.0 0.00 0.00 0.00 80 1017.5
20180525130003 63 229 3.0 6.0 0.00 0.00 0.00 81 1017.6
20180525125504 63 236 3.0 5.0 0.00 0.00 0.00 80 1017.7
20180525125004 63 215 4.0 7.0 0.00 0.00 0.00 80 1017.8
20180525124503 63 195 4.0 7.0 0.00 0.00 0.00 80 1017.8
20180525124003 63 199 4.0 6.0 0.00 0.00 0.00 80 1017.8
20180525123504 63 205 4.0 6.0 0.00 0.00 0.00 81 1017.9
20180525123004 63 206 3.0 5.0 0.00 0.00 0.00 81 1017.9
20180525122503 63 202 3.0 5.0 0.00 0.00 0.00 80 1017.9
20180525122004 63 246 3.0 5.0 0.00 0.00 0.00 80 1018.0
20180525121504 62 212 4.0 5.0 0.00 0.00 0.00 81 1017.9
20180525121004 62 247 2.0 3.0 0.00 0.00 0.00 82 1018.0
20180525120504 61 239 3.0 6.0 0.00 0.00 0.00 83 1018.0
20180525120003 61 230 3.0 5.0 0.00 0.00 0.00 83 1018.0
20180525115504 60 226 3.0 5.0 0.00 0.00 0.00 85 1018.1
20180525115004 60 247 2.0 3.0 0.00 0.00 0.00 86 1018.2
20180525114503 59 209 3.0 5.0 0.00 0.00 0.00 87 1018.3
20180525114003 59 247 4.0 6.0 0.00 0.00 0.00 88 1018.3
20180525113504 58 247 3.0 5.0 0.00 0.00 0.00 89 1018.3
20180525113004 57 252 3.0 5.0 0.00 0.00 0.00 91 1018.4
20180525112503 57 234 3.0 5.0 0.00 0.00 0.00 92 1018.5
20180525112003 56 247 4.0 6.0 0.00 0.00 0.00 92 1018.5
20180525111522 56 247 3.0 5.0 0.00 0.00 0.00 94 1018.5
20180525111004 55 247 3.0 5.0 0.00 0.00 0.00 94 1018.5
20180525110503 55 204 3.0 5.0 0.00 0.00 0.00 95 1018.6
20180525110004 54 244 3.0 5.0 0.00 0.00 0.00 96 1018.6
20180525105503 54 236 3.0 5.0 0.00 0.00 0.00 97 1018.6
20180525105003 54 229 3.0 5.0 0.00 0.00 0.00 96 1018.5
20180525104504 53 247 3.0 5.0 0.00 0.00 0.00 97 1018.6
20180525104004 53 248 3.0 4.0 0.00 0.00 0.00 98 1018.6
20180525103503 53 228 3.0 5.0 0.00 0.00 0.00 97 1018.6
20180525103003 53 221 4.0 6.0 0.00 0.00 0.00 97 1018.6
20180525102504 53 236 4.0 6.0 0.00 0.00 0.00 98 1018.6
20180525102004 53 232 4.0 6.0 0.00 0.00 0.00 98 1018.6
20180525101504 53 234 3.0 6.0 0.00 0.00 0.00 99 1018.6
20180525101003 52 249 3.0 5.0 0.00 0.00 0.00 99 1018.6
20180525100503 52 248 4.0 7.0 0.00 0.00 0.00 99 1018.6
20180525100003 52 239 4.0 7.0 0.00 0.00 0.00 99 1018.7
20180525095503 52 238 3.0 7.0 0.00 0.00 0.00 99 1018.7
20180525095003 52 238 4.0 7.0 0.00 0.00 0.00 100 1018.7
20180525094504 52 247 4.0 7.0 0.00 0.00 0.00 99 1018.6
20180525094004 52 245 3.0 5.0 0.00 0.00 0.00 100 1018.5
20180525093504 52 238 3.0 5.0 0.00 0.00 0.00 100 1018.5
20180525093004 52 252 4.0 7.0 0.00 0.00 0.00 99 1018.5
20180525092503 52 246 4.0 6.0 0.00 0.00 0.00 100 1018.5
20180525092004 52 236 3.0 5.0 0.00 0.00 0.00 99 1018.5
20180525091504 52 242 4.0 6.0 0.00 0.00 0.00 100 1018.4
20180525091003 52 244 3.0 6.0 0.00 0.00 0.00 100 1018.5
20180525090504 52 241 3.0 4.0 0.00 0.00 0.00 99 1018.4
20180525090004 52 246 3.0 5.0 0.00 0.00 0.00 100 1018.4
20180525085503 52 230 2.0 4.0 0.00 0.00 0.00 100 1018.5
20180525085003 52 247 3.0 5.0 0.00 0.00 0.00 100 1018.5
20180525084504 52 227 2.0 4.0 0.00 0.00 0.00 100 1018.6
20180525084004 52 230 3.0 5.0 0.00 0.00 0.00 100 1018.6
20180525083503 53 238 3.0 5.0 0.00 0.00 0.00 99 1018.6
20180525083004 53 212 4.0 7.0 0.00 0.00 0.00 100 1018.6
20180525082504 53 211 4.0 6.0 0.00 0.00 0.00 100 1018.7
20180525082004 53 218 4.0 7.0 0.00 0.00 0.00 99 1018.7
20180525081504 53 226 4.0 7.0 0.00 0.00 0.00 99 1018.8
20180525081003 53 224 4.0 7.0 0.00 0.00 0.00 100 1018.9
20180525080004 52 222 5.0 7.0 0.00 0.00 0.00 100 1018.9
20180525075504 52 214 5.0 8.0 0.00 0.00 0.00 100 1019.0
20180525075004 52 233 4.0 6.0 0.00 0.00 0.00 100 1019.2
20180525074504 52 219 4.0 6.0 0.00 0.00 0.00 99 1019.2
20180525074003 52 221 4.0 6.0 0.00 0.00 0.00 100 1019.3
20180525073504 52 222 4.0 7.0 0.00 0.00 0.00 100 1019.3
20180525073004 52 216 4.0 6.0 0.00 0.00 0.00 99 1019.4
20180525072503 52 232 3.0 7.0 0.00 0.00 0.00 99 1019.5
20180525072004 52 228 4.0 7.0 0.00 0.00 0.00 99 1019.5
20180525071504 52 210 4.0 8.0 0.00 0.00 0.00 99 1019.6
20180525071004 52 223 4.0 8.0 0.00 0.00 0.00 100 1019.6
20180525070503 52 207 5.0 9.0 0.00 0.00 0.00 100 1019.7
20180525070003 52 219 4.0 7.0 0.00 0.00 0.00 100 1019.8
20180525065504 52 229 6.0 10.0 0.00 0.00 0.00 100 1019.9
20180525065004 52 223 5.0 10.0 0.00 0.00 0.00 99 1020.0
20180525064503 52 219 5.0 8.0 0.00 0.00 0.00 100 1020.0
20180525064003 52 215 5.0 8.0 0.00 0.00 0.00 100 1020.0
20180525063505 52 211 5.0 9.0 0.00 0.00 0.00 100 1020.2
20180525063004 52 232 5.0 8.0 0.00 0.00 0.00 100 1020.2
20180525062504 51 227 6.0 10.0 0.00 0.00 0.00 100 1020.2
20180525062003 51 229 5.0 9.0 0.00 0.00 0.00 99 1020.3
20180525061503 51 212 5.0 9.0 0.00 0.00 0.00 100 1020.4
20180525061004 51 215 5.0 9.0 0.00 0.00 0.00 100 1020.5
20180525060504 51 208 6.0 9.0 0.00 0.00 0.00 100 1020.5
20180525060004 51 202 5.0 8.0 0.00 0.00 0.00 100 1020.6
20180525055503 51 215 4.0 8.0 0.00 0.00 0.00 100 1020.6
20180525055003 50 210 5.0 8.0 0.00 0.00 0.00 99 1020.7
20180525054503 50 213 4.0 7.0 0.00 0.00 0.00 100 1020.7
20180525054004 50 209 4.0 6.0 0.00 0.00 0.00 99 1020.8
20180525053503 50 207 5.0 9.0 0.00 0.00 0.00 100 1020.8
20180525053003 50 216 5.0 7.0 0.00 0.00 0.00 100 1020.9
20180525052504 50 223 5.0 10.0 0.00 0.00 0.00 100 1020.9
20180525052004 50 217 5.0 8.0 0.00 0.00 0.00 100 1021.0
20180525051504 50 212 4.0 7.0 0.00 0.00 0.00 100 1021.1
20180525051004 50 203 6.0 9.0 0.00 0.00 0.00 100 1021.1
20180525050503 50 211 5.0 9.0 0.00 0.00 0.00 100 1021.2
20180525050004 50 206 5.0 7.0 0.00 0.00 0.00 100 1021.2
20180525045504 50 221 4.0 7.0 0.00 0.00 0.00 100 1021.3
20180525045003 50 211 4.0 8.0 0.00 0.00 0.00 100 1021.4
20180525044504 50 208 4.0 8.0 0.00 0.00 0.00 100 1021.5
20180525044004 50 217 4.0 6.0 0.00 0.00 0.00 100 1021.5
20180525043503 50 219 5.0 9.0 0.00 0.00 0.00 99 1021.5
20180525043003 50 216 4.0 7.0 0.00 0.00 0.00 100 1021.5
20180525042504 50 223 5.0 9.0 0.00 0.00 0.00 99 1021.6
20180525042004 50 204 5.0 9.0 0.00 0.00 0.00 100 1021.5
20180525041503 50 206 5.0 8.0 0.00 0.00 0.00 99 1021.7
20180525041003 50 226 5.0 9.0 0.00 0.00 0.00 99 1021.7
20180525040504 50 215 5.0 10.0 0.00 0.00 0.00 99 1021.7
20180525035504 50 202 4.0 6.0 0.00 0.00 0.00 100 1021.9
20180525035004 50 215 4.0 7.0 0.00 0.00 0.00 99 1021.9
20180525034504 50 211 5.0 7.0 0.00 0.00 0.00 100 1022.0
20180525034003 50 214 5.0 11.0 0.00 0.00 0.00 100 1022.0
20180525033504 50 209 5.0 9.0 0.00 0.00 0.00 100 1022.1
20180525033004 50 198 3.0 5.0 0.00 0.00 0.00 100 1022.1
20180525032503 50 210 4.0 6.0 0.00 0.00 0.00 100 1022.1
20180525032004 50 208 6.0 10.0 0.00 0.00 0.00 99 1022.1
20180525031504 50 212 6.0 10.0 0.00 0.00 0.00 100 1022.1
20180525031003 50 206 4.0 7.0 0.00 0.00 0.00 99 1022.2
20180525030504 50 234 5.0 8.0 0.00 0.00 0.00 99 1022.1
20180525030004 50 204 5.0 8.0 0.00 0.00 0.00 98 1022.2
20180525025503 50 212 6.0 9.0 0.00 0.00 0.00 99 1022.3
20180525025004 50 213 5.0 8.0 0.00 0.00 0.00 99 1022.3
20180525024503 50 195 5.0 7.0 0.00 0.00 0.00 99 1022.3
20180525024004 50 198 4.0 6.0 0.00 0.00 0.00 99 1022.4
20180525023504 50 190 6.0 9.0 0.00 0.00 0.00 98 1022.4
20180525023004 50 217 4.0 7.0 0.00 0.00 0.00 99 1022.4
20180525022503 50 217 3.0 4.0 0.00 0.00 0.00 99 1022.4
20180525022003 50 198 5.0 7.0 0.00 0.00 0.00 99 1022.5
20180525021504 50 211 4.0 6.0 0.00 0.00 0.00 98 1022.5
20180525021004 50 195 5.0 8.0 0.00 0.00 0.00 98 1022.5
20180525020503 50 208 4.0 6.0 0.00 0.00 0.00 98 1022.5
20180525020004 50 164 3.0 5.0 0.00 0.00 0.00 98 1022.6
20180525015503 50 212 4.0 7.0 0.00 0.00 0.00 97 1022.6
20180525015004 50 201 4.0 6.0 0.00 0.00 0.00 98 1022.7
20180525014503 50 205 4.0 5.0 0.00 0.00 0.00 97 1022.7
20180525014003 50 211 3.0 5.0 0.00 0.00 0.00 97 1022.8
20180525013503 50 205 4.0 6.0 0.00 0.00 0.00 97 1022.8
20180525013005 50 192 4.0 6.0 0.00 0.00 0.00 96 1022.8
20180525012503 51 184 4.0 6.0 0.00 0.00 0.00 96 1022.8
20180525012003 51 199 5.0 9.0 0.00 0.00 0.00 96 1022.7
20180525011504 51 210 4.0 7.0 0.00 0.00 0.00 96 1022.8
20180525011004 51 239 4.0 7.0 0.00 0.00 0.00 95 1022.8
20180525010504 51 202 5.0 7.0 0.00 0.00 0.00 95 1022.7
20180525010004 51 188 5.0 8.0 0.00 0.00 0.00 95 1022.5
20180525005503 51 201 5.0 7.0 0.00 0.00 0.00 94 1022.6
20180525005003 51 196 6.0 9.0 0.00 0.00 0.00 94 1022.6
20180525004504 51 206 4.0 6.0 0.00 0.00 0.00 94 1022.5
20180525004004 51 197 5.0 8.0 0.00 0.00 0.00 94 1022.6
20180525003504 51 200 5.0 8.0 0.00 0.00 0.00 93 1022.5
20180525003003 51 201 5.0 8.0 0.00 0.00 0.00 92 1022.6
20180525002504 51 200 4.0 6.0 0.00 0.00 0.00 93 1022.6
20180525002004 51 200 5.0 7.0 0.00 0.00 0.00 92 1022.5
20180525001503 51 172 5.0 8.0 0.00 0.00 0.00 92 1022.4
20180525001003 51 199 4.0 7.0 0.00 0.00 0.00 91 1022.4
20180525000504 51 189 5.0 8.0 0.00 0.00 0.00 91 1022.3
20180525000003 51 201 5.0 7.0 0.00 0.00 0.00 90 1022.4
20180524235504 51 197 5.0 7.0 0.00 0.00 0.00 90 1022.5
20180524235004 52 187 5.0 7.0 0.00 0.00 0.00 89 1022.4
20180524234503 52 173 5.0 6.0 0.00 0.00 0.00 89 1022.5
20180524234004 52 204 5.0 8.0 0.00 0.00 0.00 88 1022.6
20180524233503 52 194 4.0 6.0 0.00 0.00 0.00 87 1022.6
20180524233003 52 181 2.0 4.0 0.00 0.00 0.00 86 1022.5
20180524232504 52 202 3.0 5.0 0.00 0.00 0.00 87 1022.4
20180524232004 53 179 4.0 6.0 0.00 0.00 0.00 86 1022.4
20180524231504 53 151 4.0 7.0 0.00 0.00 0.00 85 1022.4
20180524231004 53 143 4.0 6.0 0.00 0.00 0.00 84 1022.4
20180524230503 53 174 4.0 6.0 0.00 0.00 0.00 83 1022.3
20180524230004 54 150 4.0 7.0 0.00 0.00 0.00 82 1022.3
20180524225504 54 153 3.0 6.0 0.00 0.00 0.00 81 1022.3
20180524225003 54 158 4.0 7.0 0.00 0.00 0.00 81 1022.4
20180524224504 55 171 3.0 5.0 0.00 0.00 0.00 80 1022.4
20180524224004 55 183 5.0 7.0 0.00 0.00 0.00 80 1022.4
20180524223503 54 182 5.0 8.0 0.00 0.00 0.00 80 1022.4
20180524223003 54 139 5.0 7.0 0.00 0.00 0.00 79 1022.5
20180524222504 55 142 4.0 6.0 0.00 0.00 0.00 78 1022.6
20180524222003 55 158 5.0 7.0 0.00 0.00 0.00 78 1022.5
20180524221504 55 150 6.0 8.0 0.00 0.00 0.00 77 1022.6
20180524221004 55 155 5.0 8.0 0.00 0.00 0.00 76 1022.5
20180524220503 55 177 6.0 10.0 0.00 0.00 0.00 76 1022.4
20180524220004 56 161 5.0 9.0 0.00 0.00 0.00 74 1022.4
20180524215504 56 179 7.0 11.0 0.00 0.00 0.00 73 1022.3
20180524215004 56 180 6.0 10.0 0.00 0.00 0.00 73 1022.3
20180524214503 56 154 6.0 10.0 0.00 0.00 0.00 73 1022.1
20180524214003 56 155 7.0 12.0 0.00 0.00 0.00 72 1022.1
20180524213503 56 171 4.0 7.0 0.00 0.00 0.00 74 1022.2
20180524213004 56 178 5.0 9.0 0.00 0.00 0.00 74 1022.1
20180524212503 56 161 4.0 7.0 0.00 0.00 0.00 74 1022.1
20180524212004 56 186 6.0 9.0 0.00 0.00 0.00 73 1022.1
20180524211504 56 161 5.0 10.0 0.00 0.00 0.00 72 1022.2
20180524211003 56 156 6.0 9.0 0.00 0.00 0.00 70 1022.3
20180524210503 57 150 6.0 9.0 0.00 0.00 0.00 69 1022.4
20180524210004 57 156 8.0 13.0 0.00 0.00 0.00 68 1022.3
20180524205503 57 120 5.0 9.0 0.00 0.00 0.00 68 1022.4
20180524205003 58 149 5.0 10.0 0.00 0.00 0.00 68 1022.4
20180524204504 57 179 6.0 9.0 0.00 0.00 0.00 68 1022.5
20180524204004 58 170 7.0 12.0 0.00 0.00 0.00 67 1022.4
20180524203504 58 190 6.0 10.0 0.00 0.00 0.00 66 1022.3
20180524203004 58 152 6.0 9.0 0.00 0.00 0.00 67 1022.3
20180524202503 58 181 6.0 9.0 0.00 0.00 0.00 68 1022.3
20180524202004 58 169 6.0 9.0 0.00 0.00 0.00 68 1022.3